Weather History for Tuscaloosa, AL

Change the Weather History Date:

Friday, December 14, 2012

  Actual Average Record
Temperature  
Mean Temperature 47 °F 47 °F  
Max Temperature 62 °F 58 °F 78 °F (1984)
Min Temperature 31 °F 36 °F 14 °F (1962)
Degree Days  
Heating Degree Days 18 18  
Month to date heating degree days 125 233  
Since 1 July heating degree days 621 670  
Moisture  
Dew Point 39 °F    
Average Humidity 75    
Maximum Humidity 100    
Minimum Humidity 49    
Precipitation  
Precipitation 0.00 in 0.15 in 1.04 in (1961)
Month to date precipitation 3.07 2.34  
Year to date precipitation 43.58 50.32  
Sea Level Pressure  
Sea Level Pressure 30.27 in    
Wind  
Wind Speed 3 mph (East)    
Max Wind Speed 12 mph    
Max Gust Speed 15 mph    
Visibility 9 miles    
Events      
T = Trace of Precipitation, MM = Missing Value Source: NWS Daily Summary

Daily Weather History Graph

Daily Weather History Graph

Search for Another Location

Airport:

Trip Planner

Search our weather history database for the weather conditions in past years. The results will help you decide how hot, cold, wet, or windy it might be!

Date:

Astronomy

Dec. 14, 2012 Rise Set
Actual Time 6:46 AM CST 4:44 PM CST
Civil Twilight 6:18 AM CST 5:12 PM CST
Nautical Twilight 5:47 AM CST 5:43 PM CST
Astronomical Twilight 5:17 AM CST 6:13 PM CST
Moon 7:53 AM CST (12/14) 6:33 PM CST (12/14)
Length of Visible Light 10h 53m
Length of Day
9h 58m
Waxing Crescent, 3% of the Moon is Illuminated
Dec 14
Waxing Crescent
Dec 19
First Quarter
Dec 28
Full
Jan 4
Last Quarter
Jan 11
New

Hourly Weather History & Observations

Time (CST) Temp. Windchill Dew Point Humidity Pressure Visibility Wind Dir Wind Speed Gust Speed Precip Events Conditions
12:53 AM 35.1 °F 32.2 °F 33.1 °F 92% 30.33 in 10.0 mi NNE 3.5 mph - N/A   Clear
1:53 AM 35.1 °F 32.2 °F 33.1 °F 92% 30.32 in 9.0 mi NNE 3.5 mph - N/A   Clear
2:53 AM 34.0 °F - 32.0 °F 92% 30.32 in 9.0 mi Calm Calm - N/A   Clear
3:53 AM 34.0 °F - 32.0 °F 92% 30.32 in 10.0 mi Calm Calm - N/A   Clear
4:53 AM 33.1 °F 28.7 °F 30.9 °F 92% 30.33 in 9.0 mi NE 4.6 mph - N/A   Clear
5:53 AM 30.9 °F 26.2 °F 30.0 °F 96% 30.34 in 7.0 mi WNW 4.6 mph - N/A   Clear
6:46 AM 32.0 °F - 30.2 °F 93% 30.34 in 2.0 mi Calm Calm - N/A   Clear
6:53 AM 32.0 °F - 30.9 °F 96% 30.34 in 6.0 mi Calm Calm - N/A   Clear
7:53 AM 36.0 °F - 34.0 °F 93% 30.37 in 8.0 mi Calm Calm - N/A   Clear
8:53 AM 46.9 °F - 42.1 °F 83% 30.34 in 9.0 mi Calm Calm - N/A   Clear
9:53 AM 53.1 °F - 41.0 °F 64% 30.35 in - SE 6.9 mph - N/A   Clear
10:43 AM 55.4 °F - 41.0 °F 58% 30.34 in 10.0 mi SE 6.9 mph - N/A   Partly Cloudy
10:53 AM 55.9 °F - 41.0 °F 57% 30.33 in 10.0 mi North - - N/A   Partly Cloudy
11:53 AM 57.9 °F - 41.0 °F 53% 30.29 in 10.0 mi NE 4.6 mph - N/A   Clear
12:53 PM 57.9 °F - 41.0 °F 53% 30.25 in 10.0 mi SSE 4.6 mph - N/A   Clear
1:53 PM 60.1 °F - 41.0 °F 49% 30.23 in 10.0 mi NW 3.5 mph - N/A   Clear
2:53 PM 61.0 °F - 41.0 °F 48% 30.22 in 10.0 mi Calm Calm - N/A   Clear
3:53 PM 61.0 °F - 41.0 °F 48% 30.22 in 10.0 mi NNE 3.5 mph - N/A   Clear
4:53 PM 54.0 °F - 42.1 °F 64% 30.20 in 10.0 mi ENE 4.6 mph - N/A   Clear
5:53 PM 52.0 °F - 42.1 °F 69% 30.17 in 10.0 mi East 4.6 mph - N/A   Clear
6:53 PM 52.0 °F - 43.0 °F 71% 30.19 in 10.0 mi Calm Calm - N/A   Clear
7:53 PM 54.0 °F - 43.0 °F 66% 30.18 in 10.0 mi ESE 3.5 mph - N/A   Clear
8:53 PM 53.1 °F - 44.1 °F 71% 30.17 in 10.0 mi South 4.6 mph - N/A   Clear
9:53 PM 51.1 °F - 44.1 °F 77% 30.18 in 10.0 mi South 3.5 mph - N/A   Clear
10:53 PM 50.0 °F - 44.1 °F 80% 30.17 in 10.0 mi Calm Calm - N/A   Clear
11:53 PM 50.0 °F - 45.0 °F 83% 30.17 in 10.0 mi Calm Calm - N/A   Mostly Cloudy